Tracking 27420 objects as of 10-Jun-2023
HD Live streaming from Space Station
objects crossing your sky now

STARLINK-1709

Track STARLINK-1709 now!
10-day predictions
STARLINK-1709 is classified as:


NORAD ID: 46561
Int'l Code: 2020-070AF
Perigee: 553.8 km
Apogee: 554.7 km
Inclination: 53.1 °
Period: 95.6 minutes
Semi major axis: 6925 km
RCS: Unknown
Launch date: October 6, 2020
Source: United States (US)
Launch site: AIR FORCE EASTERN TEST RANGE (AFETR)
Your satellite tracking list
Your tracking list is empty




NASA's NSSDC Master Catalog

Two Line Element Set (TLE):
1 46561U 20070AF  23160.93474036  .00019970  00000-0  13546-2 0  9996
2 46561  53.0549 347.6797 0000703  79.2709 280.8359 15.06431843148437
Source of the keplerian elements: AFSPC